Time,TemperatureF,DewpointF,PressureIn,WindDirection,WindDirectionDegrees,WindSpeedMPH,WindSpeedGustMPH,Humidity,HourlyPrecipIn,Conditions,Clouds,dailyrainin,SolarRadiationWatts/m^2,SoftwareType,DateUTC
2013-11-06 00:14:00,46.7,35.0,30.26,East,90,0.0,0.0,63,0.00,,,0.00,0,weatherlink.com 1.10,2013-11-06 08:14:00,
2013-11-06 00:29:00,46.3,34.0,30.26,East,90,0.0,0.0,63,0.00,,,0.00,0,weatherlink.com 1.10,2013-11-06 08:29:00,
2013-11-06 00:44:00,46.3,34.0,30.26,East,90,0.0,0.0,63,0.00,,,0.00,0,weatherlink.com 1.10,2013-11-06 08:44:00,
2013-11-06 00:59:00,46.0,34.0,30.26,East,90,0.0,0.0,63,0.00,,,0.00,0,weatherlink.com 1.10,2013-11-06 08:59:00,
2013-11-06 01:14:00,46.1,34.0,30.27,East,90,0.0,0.0,64,0.00,,,0.00,0,weatherlink.com 1.10,2013-11-06 09:14:00,
2013-11-06 01:29:00,46.1,34.0,30.27,East,90,0.0,1.0,64,0.00,,,0.00,0,weatherlink.com 1.10,2013-11-06 09:29:00,
2013-11-06 01:44:00,45.9,35.0,30.27,East,90,0.0,1.0,65,0.00,,,0.00,0,weatherlink.com 1.10,2013-11-06 09:44:00,
2013-11-06 02:15:00,45.3,35.0,30.27,East,90,0.0,1.0,67,0.00,,,0.00,0,weatherlink.com 1.10,2013-11-06 10:15:00,
2013-11-06 02:30:00,44.8,34.0,30.26,East,90,0.0,0.0,67,0.00,,,0.00,0,weatherlink.com 1.10,2013-11-06 10:30:00,
2013-11-06 02:45:00,44.5,34.0,30.26,East,90,0.0,0.0,68,0.00,,,0.00,0,weatherlink.com 1.10,2013-11-06 10:45:00,
2013-11-06 03:00:00,44.2,34.0,30.26,East,90,0.0,0.0,68,0.00,,,0.00,0,weatherlink.com 1.10,2013-11-06 11:00:00,
2013-11-06 03:15:00,44.2,34.0,30.27,East,90,0.0,0.0,68,0.00,,,0.00,0,weatherlink.com 1.10,2013-11-06 11:15:00,
2013-11-06 03:30:00,44.0,34.0,30.27,East,90,0.0,0.0,69,0.00,,,0.00,0,weatherlink.com 1.10,2013-11-06 11:30:00,
2013-11-06 03:45:00,43.9,34.0,30.27,East,90,0.0,1.0,69,0.00,,,0.00,0,weatherlink.com 1.10,2013-11-06 11:45:00,
2013-11-06 04:00:00,43.9,35.0,30.26,East,89,0.0,0.0,70,0.00,,,0.00,0,weatherlink.com 1.10,2013-11-06 12:00:00,
2013-11-06 04:15:00,43.8,34.0,30.27,East,90,0.0,0.0,69,0.00,,,0.00,0,weatherlink.com 1.10,2013-11-06 12:15:00,
2013-11-06 04:30:00,43.4,34.0,30.27,East,89,0.0,0.0,70,0.00,,,0.00,0,weatherlink.com 1.10,2013-11-06 12:30:00,
2013-11-06 04:45:00,43.1,34.0,30.27,East,89,0.0,0.0,71,0.00,,,0.00,0,weatherlink.com 1.10,2013-11-06 12:45:00,
2013-11-06 05:00:00,42.8,34.0,30.27,East,89,0.0,0.0,72,0.00,,,0.00,0,weatherlink.com 1.10,2013-11-06 13:00:00,
2013-11-06 05:15:00,42.7,35.0,30.27,East,90,0.0,0.0,73,0.00,,,0.00,0,weatherlink.com 1.10,2013-11-06 13:15:00,
2013-11-06 05:30:00,42.7,35.0,30.28,East,90,0.0,0.0,73,0.00,,,0.00,0,weatherlink.com 1.10,2013-11-06 13:30:00,
2013-11-06 05:45:00,42.4,35.0,30.28,East,90,0.0,0.0,74,0.00,,,0.00,0,weatherlink.com 1.10,2013-11-06 13:45:00,
2013-11-06 06:00:00,42.0,35.0,30.28,East,90,0.0,0.0,76,0.00,,,0.00,0,weatherlink.com 1.10,2013-11-06 14:00:00,
2013-11-06 06:15:00,41.9,35.0,30.28,East,90,0.0,0.0,76,0.00,,,0.00,0,weatherlink.com 1.10,2013-11-06 14:15:00,
2013-11-06 06:30:00,42.0,35.0,30.28,East,90,0.0,0.0,76,0.00,,,0.00,0,weatherlink.com 1.10,2013-11-06 14:30:00,
2013-11-06 06:45:00,42.1,35.0,30.28,East,90,0.0,0.0,76,0.00,,,0.00,7,weatherlink.com 1.10,2013-11-06 14:45:00,
2013-11-06 07:00:00,42.0,35.0,30.28,East,90,0.0,0.0,76,0.00,,,0.00,14,weatherlink.com 1.10,2013-11-06 15:00:00,
2013-11-06 07:15:00,42.3,36.0,30.29,East,90,0.0,0.0,77,0.00,,,0.00,49,weatherlink.com 1.10,2013-11-06 15:15:00,
2013-11-06 07:30:00,43.7,37.0,30.29,East,88,0.0,0.0,76,0.00,,,0.00,88,weatherlink.com 1.10,2013-11-06 15:30:00,
2013-11-06 07:45:00,45.6,37.0,30.30,East,89,0.0,0.0,71,0.00,,,0.00,127,weatherlink.com 1.10,2013-11-06 15:45:00,
2013-11-06 08:00:00,48.2,36.0,30.30,East,88,0.0,0.0,62,0.00,,,0.00,185,weatherlink.com 1.10,2013-11-06 16:00:00,
2013-11-06 08:15:00,49.7,36.0,30.29,East,90,0.0,1.0,59,0.00,,,0.00,243,weatherlink.com 1.10,2013-11-06 16:15:00,
2013-11-06 08:30:00,51.7,35.0,30.30,East,88,2.0,2.0,54,0.00,,,0.00,253,weatherlink.com 1.10,2013-11-06 16:30:00,
2013-11-06 08:45:00,52.8,36.0,30.30,East,89,2.0,2.0,53,0.00,,,0.00,313,weatherlink.com 1.10,2013-11-06 16:45:00,
2013-11-06 09:01:00,54.1,36.0,30.30,WSW,257,3.0,3.0,51,0.00,,,0.00,336,weatherlink.com 1.10,2013-11-06 17:01:00,
2013-11-06 09:16:00,54.9,36.0,30.31,WSW,254,3.0,4.0,50,0.00,,,0.00,390,weatherlink.com 1.10,2013-11-06 17:16:00,
2013-11-06 09:31:00,56.7,38.0,30.31,WSW,254,1.0,4.0,49,0.00,,,0.00,427,weatherlink.com 1.10,2013-11-06 17:31:00,
2013-11-06 09:46:00,58.6,39.0,30.31,WSW,254,2.0,3.0,48,0.00,,,0.00,448,weatherlink.com 1.10,2013-11-06 17:46:00,
2013-11-06 10:01:00,60.6,39.0,30.31,WSW,250,1.0,4.0,45,0.00,,,0.00,308,weatherlink.com 1.10,2013-11-06 18:01:00,
2013-11-06 10:16:00,63.8,35.0,30.30,NNW,348,0.0,3.0,34,0.00,,,0.00,492,weatherlink.com 1.10,2013-11-06 18:16:00,
2013-11-06 10:31:00,65.9,34.0,30.30,ENE,58,2.0,3.0,31,0.00,,,0.00,515,weatherlink.com 1.10,2013-11-06 18:31:00,
2013-11-06 10:46:00,66.1,36.0,30.30,North,351,0.0,4.0,33,0.00,,,0.00,459,weatherlink.com 1.10,2013-11-06 18:46:00,
2013-11-06 11:02:00,66.4,36.0,30.29,North,349,0.0,3.0,33,0.00,,,0.00,504,weatherlink.com 1.10,2013-11-06 19:02:00,
2013-11-06 11:16:00,66.1,36.0,30.29,North,355,3.0,5.0,33,0.00,,,0.00,480,weatherlink.com 1.10,2013-11-06 19:16:00,
2013-11-06 11:31:00,66.2,36.0,30.28,NNE,17,4.0,5.0,33,0.00,,,0.00,438,weatherlink.com 1.10,2013-11-06 19:31:00,
2013-11-06 11:46:00,66.3,35.0,30.27,NNW,338,2.0,6.0,32,0.00,,,0.00,454,weatherlink.com 1.10,2013-11-06 19:46:00,
2013-11-06 12:01:00,66.6,36.0,30.27,NE,46,3.0,4.0,33,0.00,,,0.00,446,weatherlink.com 1.10,2013-11-06 20:01:00,
2013-11-06 12:16:00,67.2,37.0,30.26,NNW,348,2.0,6.0,33,0.00,,,0.00,540,weatherlink.com 1.10,2013-11-06 20:16:00,
2013-11-06 12:31:00,67.4,37.0,30.26,North,11,3.0,5.0,33,0.00,,,0.00,515,weatherlink.com 1.10,2013-11-06 20:31:00,
2013-11-06 12:46:00,68.1,37.0,30.26,NNW,344,4.0,4.0,32,0.00,,,0.00,476,weatherlink.com 1.10,2013-11-06 20:46:00,
2013-11-06 13:01:00,67.9,38.0,30.25,NNW,348,3.0,6.0,34,0.00,,,0.00,441,weatherlink.com 1.10,2013-11-06 21:01:00,
2013-11-06 13:16:00,68.0,38.0,30.25,North,355,1.0,5.0,33,0.00,,,0.00,267,weatherlink.com 1.10,2013-11-06 21:16:00,
2013-11-06 13:31:00,67.8,38.0,30.25,NNE,25,3.0,5.0,34,0.00,,,0.00,348,weatherlink.com 1.10,2013-11-06 21:31:00,
2013-11-06 13:46:00,67.9,38.0,30.24,North,5,2.0,6.0,34,0.00,,,0.00,381,weatherlink.com 1.10,2013-11-06 21:46:00,
2013-11-06 14:01:00,67.9,38.0,30.24,ESE,105,0.0,5.0,34,0.00,,,0.00,327,weatherlink.com 1.10,2013-11-06 22:01:00,
2013-11-06 14:16:00,68.6,39.0,30.24,NNE,21,2.0,4.0,34,0.00,,,0.00,420,weatherlink.com 1.10,2013-11-06 22:16:00,
2013-11-06 14:31:00,68.7,39.0,30.24,NNE,30,1.0,5.0,34,0.00,,,0.00,359,weatherlink.com 1.10,2013-11-06 22:31:00,
2013-11-06 14:46:00,69.2,40.0,30.23,North,5,0.0,3.0,34,0.00,,,0.00,360,weatherlink.com 1.10,2013-11-06 22:46:00,
2013-11-06 15:01:00,68.9,39.0,30.23,NNW,348,2.0,4.0,34,0.00,,,0.00,253,weatherlink.com 1.10,2013-11-06 23:01:00,
2013-11-06 15:16:00,68.9,39.0,30.23,North,5,0.0,5.0,34,0.00,,,0.00,206,weatherlink.com 1.10,2013-11-06 23:16:00,
2013-11-06 15:32:00,68.7,39.0,30.23,North,9,0.0,3.0,34,0.00,,,0.00,165,weatherlink.com 1.10,2013-11-06 23:32:00,
2013-11-06 15:47:00,68.2,39.0,30.23,North,350,0.0,4.0,34,0.00,,,0.00,98,weatherlink.com 1.10,2013-11-06 23:47:00,
2013-11-06 16:02:00,67.6,39.0,30.23,NNW,341,0.0,2.0,35,0.00,,,0.00,91,weatherlink.com 1.10,2013-11-07 00:02:00,
2013-11-06 16:17:00,67.0,38.0,30.23,NNW,343,0.0,3.0,35,0.00,,,0.00,49,weatherlink.com 1.10,2013-11-07 00:17:00,
2013-11-06 16:32:00,66.2,38.0,30.22,NNW,343,0.0,1.0,36,0.00,,,0.00,23,weatherlink.com 1.10,2013-11-07 00:32:00,
2013-11-06 16:47:00,65.3,38.0,30.22,NNW,343,0.0,1.0,37,0.00,,,0.00,11,weatherlink.com 1.10,2013-11-07 00:47:00,
2013-11-06 17:02:00,64.5,38.0,30.22,NNW,343,0.0,0.0,38,0.00,,,0.00,0,weatherlink.com 1.10,2013-11-07 01:02:00,
2013-11-06 17:17:00,63.6,38.0,30.22,NNW,343,0.0,1.0,39,0.00,,,0.00,0,weatherlink.com 1.10,2013-11-07 01:17:00,
2013-11-06 17:32:00,62.9,37.0,30.22,NNW,343,0.0,1.0,39,0.00,,,0.00,0,weatherlink.com 1.10,2013-11-07 01:32:00,
2013-11-06 17:47:00,62.2,38.0,30.23,NNW,343,0.0,1.0,41,0.00,,,0.00,0,weatherlink.com 1.10,2013-11-07 01:47:00,
2013-11-06 18:02:00,61.8,38.0,30.23,NNW,343,0.0,1.0,41,0.00,,,0.00,0,weatherlink.com 1.10,2013-11-07 02:02:00,
2013-11-06 18:17:00,61.7,38.0,30.23,NNW,343,0.0,0.0,41,0.00,,,0.00,0,weatherlink.com 1.10,2013-11-07 02:17:00,
2013-11-06 18:32:00,61.2,38.0,30.23,NNW,343,0.0,0.0,42,0.00,,,0.00,0,weatherlink.com 1.10,2013-11-07 02:32:00,
2013-11-06 18:47:00,60.4,38.0,30.23,NNW,343,0.0,0.0,44,0.00,,,0.00,0,weatherlink.com 1.10,2013-11-07 02:47:00,
2013-11-06 19:02:00,59.7,38.0,30.23,NNW,343,0.0,0.0,45,0.00,,,0.00,0,weatherlink.com 1.10,2013-11-07 03:02:00,
2013-11-06 19:17:00,59.0,39.0,30.23,NNW,343,0.0,0.0,47,0.00,,,0.00,0,weatherlink.com 1.10,2013-11-07 03:17:00,
2013-11-06 19:32:00,58.3,39.0,30.23,NNW,343,0.0,0.0,49,0.00,,,0.00,0,weatherlink.com 1.10,2013-11-07 03:32:00,
2013-11-06 19:47:00,57.7,39.0,30.23,NNW,343,0.0,1.0,51,0.00,,,0.00,0,weatherlink.com 1.10,2013-11-07 03:47:00,
2013-11-06 20:02:00,57.1,39.0,30.23,NNW,343,0.0,0.0,52,0.00,,,0.00,0,weatherlink.com 1.10,2013-11-07 04:02:00,
2013-11-06 20:17:00,56.6,40.0,30.23,NNW,343,0.0,0.0,54,0.00,,,0.00,0,weatherlink.com 1.10,2013-11-07 04:17:00,
2013-11-06 20:32:00,56.1,39.0,30.23,NNW,343,0.0,0.0,54,0.00,,,0.00,0,weatherlink.com 1.10,2013-11-07 04:32:00,
2013-11-06 20:47:00,55.6,39.0,30.23,NNW,343,0.0,0.0,55,0.00,,,0.00,0,weatherlink.com 1.10,2013-11-07 04:47:00,
2013-11-06 21:17:00,54.4,39.0,30.24,NNW,343,0.0,0.0,57,0.00,,,0.00,0,weatherlink.com 1.10,2013-11-07 05:17:00,
2013-11-06 21:32:00,54.1,40.0,30.23,NNW,343,0.0,0.0,59,0.00,,,0.00,0,weatherlink.com 1.10,2013-11-07 05:32:00,
2013-11-06 21:47:00,53.7,40.0,30.23,NNW,343,0.0,1.0,60,0.00,,,0.00,0,weatherlink.com 1.10,2013-11-07 05:47:00,
2013-11-06 22:02:00,53.5,40.0,30.23,NNW,343,0.0,0.0,60,0.00,,,0.00,0,weatherlink.com 1.10,2013-11-07 06:02:00,
2013-11-06 22:17:00,53.2,40.0,30.24,NNW,343,0.0,0.0,62,0.00,,,0.00,0,weatherlink.com 1.10,2013-11-07 06:17:00,
2013-11-06 22:32:00,53.0,40.0,30.23,NNW,343,0.0,0.0,62,0.00,,,0.00,0,weatherlink.com 1.10,2013-11-07 06:32:00,
2013-11-06 22:47:00,52.7,40.0,30.23,NNW,343,0.0,0.0,63,0.00,,,0.00,0,weatherlink.com 1.10,2013-11-07 06:47:00,
2013-11-06 23:02:00,52.6,41.0,30.23,NNW,343,0.0,0.0,64,0.00,,,0.00,0,weatherlink.com 1.10,2013-11-07 07:02:00,
2013-11-06 23:17:00,52.3,40.0,30.23,NNW,343,0.0,0.0,64,0.00,,,0.00,0,weatherlink.com 1.10,2013-11-07 07:17:00,
2013-11-06 23:32:00,52.1,41.0,30.22,NNW,343,0.0,0.0,65,0.00,,,0.00,0,weatherlink.com 1.10,2013-11-07 07:32:00,
2013-11-06 23:47:00,51.8,41.0,30.22,NNW,343,0.0,0.0,66,0.00,,,0.00,0,weatherlink.com 1.10,2013-11-07 07:47:00,